H1 CPF 2 NER 2021 1 19 9 019 01 glonass128 H2 1106401 9128 37867 2021 1 19 0 0 0 2021 1 22 23 45 0 900 1 1 0 0 0 1 H9 10 0 59233 0.00000 0 -11994784.885 6365604.702 21618732.376 10 0 59233 900.00000 0 -14446839.354 5564918.061 20292835.459 10 0 59233 1800.00000 0 -16770768.305 4994054.640 18573565.176 10 0 59233 2700.00000 0 -18901834.623 4640470.026 16493982.170 10 0 59233 3600.00000 0 -20780544.118 4480179.829 14094182.747 10 0 59233 4500.00000 0 -22354984.191 4478958.456 11420544.130 10 0 59233 5400.00000 0 -23582867.540 4593981.986 8524842.659 10 0 59233 6300.00000 0 -24433194.224 4775847.214 5463260.315 10 0 59233 7200.00000 0 -24887460.639 4970882.218 2295297.939 10 0 59233 8100.00000 0 -24940362.623 5123650.672 -917384.151 10 0 59233 9000.00000 0 -24599961.042 5179543.037 -4112175.230 10 0 59233 9900.00000 0 -23887300.968 5087343.247 -7226748.267 10 0 59233 10800.00000 0 -22835499.174 4801659.852 -10200293.496 10 0 59233 11700.00000 0 -21488337.623 4285115.854 -12974725.440 10 0 59233 12600.00000 0 -19898422.261 3510201.576 -15495837.675 10 0 59233 13500.00000 0 -18124985.425 2460709.253 -17714380.714 10 0 59233 14400.00000 0 -16231425.665 1132686.090 -19587040.139 10 0 59233 15300.00000 0 -14282690.224 -465136.505 -21077294.328 10 0 59233 16200.00000 0 -12342612.004 -2311457.066 -22156134.073 10 0 59233 17100.00000 0 -10471314.473 -4373057.658 -22802629.560 10 0 59233 18000.00000 0 -8722794.724 -6605969.515 -23004333.683 10 0 59233 18900.00000 0 -7142786.629 -8957101.478 -22757514.347 10 0 59233 19800.00000 0 -5766993.495 -11366262.318 -22067212.174 10 0 59233 20700.00000 0 -4619763.434 -13768491.244 -20947123.683 10 0 59233 21600.00000 0 -3713261.178 -16096598.289 -19419313.676 10 0 59233 22500.00000 0 -3047168.731 -18283807.701 -17513763.892 10 0 59233 23400.00000 0 -2608924.581 -20266393.461 -15267768.302 10 0 59233 24300.00000 0 -2374488.338 -21986196.993 -12725188.232 10 0 59233 25200.00000 0 -2309595.530 -23392922.538 -9935583.096 10 0 59233 26100.00000 0 -2371446.960 -24446115.400 -6953234.818 10 0 59233 27000.00000 0 -2510759.012 -25116742.071 -3836085.754 10 0 59233 27900.00000 0 -2674086.664 -25388308.167 -644611.291 10 0 59233 28800.00000 0 -2806320.142 -25257469.622 2559350.677 10 0 59233 29700.00000 0 -2853249.419 -24734113.811 5713790.801 10 0 59233 30600.00000 0 -2764088.572 -23840909.218 8757717.345 10 0 59233 31500.00000 0 -2493854.287 -22612344.138 11632320.995 10 0 59233 32400.00000 0 -2005499.269 -21093295.667 14282094.138 10 0 59233 33300.00000 0 -1271711.840 -19337189.173 16655884.532 10 0 59233 34200.00000 0 -276307.029 -17403824.821 18707864.608 10 0 59233 35100.00000 0 984848.707 -15356960.826 20398399.546 10 0 59233 36000.00000 0 2503417.942 -13261752.586 21694799.074 10 0 59233 36900.00000 0 4258696.166 -11182152.416 22571939.926 10 0 59233 37800.00000 0 6218236.239 -9178375.956 23012748.124 10 0 59233 38700.00000 0 8338969.549 -7304538.452 23008532.359 10 0 59233 39600.00000 0 10568779.797 -5606557.477 22559162.066 10 0 59233 40500.00000 0 12848466.939 -4120407.901 21673086.172 10 0 59233 41400.00000 0 15114022.675 -2870800.896 20367190.907 10 0 59233 42300.00000 0 17299125.598 -1870341.937 18666497.725 10 0 59233 43200.00000 0 19337754.537 -1119203.288 16603705.034 10 0 59233 44100.00000 0 21166812.896 -605325.602 14218580.245 10 0 59233 45000.00000 0 22728655.277 -305141.428 11557211.662 10 0 59233 45900.00000 0 23973410.761 -184791.557 8671132.593 10 0 59233 46800.00000 0 24861004.702 -201784.177 5616332.989 10 0 59233 47700.00000 0 25362792.602 -307027.670 2452176.814 10 0 59233 48600.00000 0 25462735.348 -447151.367 -759754.234 10 0 59233 49500.00000 0 25158064.073 -567015.567 -3956867.856 10 0 59233 50400.00000 0 24459404.345 -612303.285 -7076794.566 10 0 59233 51300.00000 0 23390352.594 -532081.985 -10058621.834 10 0 59233 52200.00000 0 21986521.207 -281224.236 -12844103.005 10 0 59233 53100.00000 0 20294091.939 177418.032 -15378815.205 10 0 59233 54000.00000 0 18367938.615 871180.615 -17613241.599 10 0 59233 54900.00000 0 16269398.905 1816175.705 -19503754.990 10 0 59233 55800.00000 0 14063790.163 3016364.028 -21013481.986 10 0 59233 56700.00000 0 11817775.251 4463151.356 -22113029.861 10 0 59233 57600.00000 0 9596690.442 6135527.460 -22781061.411 10 0 59233 58500.00000 0 7461948.810 8000742.042 -23004706.568 10 0 59233 59400.00000 0 5468628.720 10015489.052 -22779803.262 10 0 59233 60300.00000 0 3663348.502 12127549.093 -22110963.740 10 0 59233 61200.00000 0 2082515.729 14277819.984 -21011466.242 10 0 59233 62100.00000 0 751022.942 16402649.461 -19502975.587 10 0 59233 63000.00000 0 -318557.771 18436371.359 -17615099.583 10 0 59233 63900.00000 0 -1126250.226 20313938.374 -15384791.470 10 0 59233 64800.00000 0 -1684411.315 21973540.983 -12855611.475 10 0 59233 65700.00000 0 -2016944.169 23359103.093 -10076863.128 10 0 59233 66600.00000 0 -2158023.605 24422550.639 -7102622.349 10 0 59233 67500.00000 0 -2150390.342 25125759.392 -3990679.022 10 0 59233 68400.00000 0 -2043288.201 25442102.032 -801412.201 10 0 59233 69300.00000 0 -1890132.895 25357531.573 2403378.877 10 0 59233 70200.00000 0 -1746011.678 24871157.791 5561665.398 10 0 59233 71100.00000 0 -1665119.554 23995294.399 8612378.673 10 0 59233 72000.00000 0 -1698239.773 22754976.605 11496576.603 10 0 59233 72900.00000 0 -1890373.904 21186970.379 14158565.646 10 0 59233 73800.00000 0 -2278620.252 19338315.277 16546958.083 10 0 59233 74700.00000 0 -2890388.652 17264461.573 18615645.788 10 0 59233 75600.00000 0 -3742025.791 15027078.462 20324673.559 10 0 59233 76500.00000 0 -4837908.292 12691623.119 21640996.851 10 0 59233 77400.00000 0 -6170041.709 10324769.877 22539110.758 10 0 59233 78300.00000 0 -7718183.137 7991804.082 23001539.305 10 0 59233 79200.00000 0 -9450483.971 5754086.570 23019176.213 10 0 59233 80100.00000 0 -11324628.249 3666691.952 22591470.636 10 0 59233 81000.00000 0 -13289421.872 1776317.004 21726453.716 10 0 59233 81900.00000 0 -15286769.513 119544.764 20440604.242 10 0 59233 82800.00000 0 -17253959.661 -1278464.005 18758554.327 10 0 59233 83700.00000 0 -19126165.203 -2404797.527 16712638.680 10 0 59233 84600.00000 0 -20839057.208 -3259102.890 14342293.822 10 0 59233 85500.00000 0 -22331423.913 -3853365.060 11693316.651 10 0 59234 0.00000 0 -23547685.745 -4211163.174 8816994.630 10 0 59234 900.00000 0 -24440200.190 -4366434.148 5769122.366 10 0 59234 1800.00000 0 -24971259.172 -4361794.786 2608923.634 10 0 59234 2700.00000 0 -25114691.426 -4246492.577 -602101.973 10 0 59234 3600.00000 0 -24857001.811 -4074072.163 -3801384.102 10 0 59234 4500.00000 0 -24197995.683 -3899856.906 -6926514.295 10 0 59234 5400.00000 0 -23150860.257 -3778353.883 -9916480.654 10 0 59234 6300.00000 0 -21741697.434 -3760694.400 -12712878.599 10 0 59234 7200.00000 0 -20008526.510 -3892221.003 -15261071.849 10 0 59234 8100.00000 0 -17999798.208 -4210325.973 -17511278.970 10 0 59234 9000.00000 0 -15772482.702 -4742635.467 -19419562.337 10 0 59234 9900.00000 0 -13389812.833 -5505618.425 -20948698.657 10 0 59234 10800.00000 0 -10918778.486 -6503680.895 -22068912.989 10 0 59234 11700.00000 0 -8427478.573 -7728785.271 -22758461.436 10 0 59234 12600.00000 0 -5982442.996 -9160610.999 -23004051.052 10 0 59234 13500.00000 0 -3646037.605 -10767250.019 -22801089.301 10 0 59234 14400.00000 0 -1474061.149 -12506407.083 -22153759.043 10 0 59234 15300.00000 0 486365.505 -14327053.582 -21074918.792 10 0 59234 16200.00000 0 2198530.697 -16171464.262 -19585831.577 10 0 59234 17100.00000 0 3637413.284 -17977550.269 -17715729.193 10 0 59234 18000.00000 0 4790462.711 -19681389.592 -15501221.867 10 0 59234 18900.00000 0 5657848.247 -21219848.150 -12985566.303 10 0 59234 19800.00000 0 6252170.241 -22533181.380 -10217807.642 10 0 59234 20700.00000 0 6597648.871 -23567507.450 -7251813.259 10 0 59234 21600.00000 0 6728827.693 -24277049.154 -4145218.029 10 0 59234 22500.00000 0 6688849.322 -24626051.694 -958302.185 10 0 59234 23400.00000 0 6527378.022 -24590297.425 2247176.122 10 0 59234 24300.00000 0 6298258.231 -24158155.836 5409170.962 10 0 59234 25200.00000 0 6057008.431 -23331126.448 8466538.934 10 0 59234 26100.00000 0 5858255.995 -22123853.477 11360207.294 10 0 59234 27000.00000 0 5753220.479 -20563612.738 14034298.566 10 0 59234 27900.00000 0 5787350.331 -18689292.878 16437191.389 10 0 59234 28800.00000 0 5998211.175 -16549913.405 18522498.732 10 0 59234 29700.00000 0 6413713.251 -14202740.594 20249946.433 10 0 59234 30600.00000 0 7050751.537 -11711078.271 21586136.845 10 0 59234 31500.00000 0 7914315.157 -9141823.495 22505184.320 10 0 59234 32400.00000 0 8997103.673 -6562886.303 22989211.492 10 0 59234 33300.00000 0 10279667.335 -4040578.137 23028697.438 10 0 59234 34200.00000 0 11731067.141 -1637074.919 22622671.077 10 0 59234 35100.00000 0 13310029.476 591942.118 21778745.555 10 0 59234 36000.00000 0 14966549.893 2599371.647 20512991.774 10 0 59234 36900.00000 0 16643881.871 4348417.853 18849651.831 10 0 59234 37800.00000 0 18280830.254 5813885.133 16820695.834 10 0 59234 38700.00000 0 19814255.778 6982987.700 14465228.297 10 0 59234 39600.00000 0 21181687.482 7855639.539 11828753.341 10 0 59234 40500.00000 0 22323934.305 8444211.497 8962310.827 10 0 59234 41400.00000 0 23187586.179 8772764.542 5921498.383 10 0 59234 42300.00000 0 23727298.422 8875790.302 2765397.315 10 0 59234 43200.00000 0 23907761.538 8796511.254 -444577.281 10 0 59234 44100.00000 0 23705271.042 8584812.143 -3645879.575 10 0 59234 45000.00000 0 23108828.467 8294890.516 -6776064.807 10 0 59234 45900.00000 0 22120724.438 7982726.995 -9774024.420 10 0 59234 46800.00000 0 20756576.792 7703484.196 -12581198.535 10 0 59234 47700.00000 0 19044820.272 7508946.722 -15142739.967 10 0 59234 48600.00000 0 17025668.076 7445113.241 -17408604.991 10 0 59234 49500.00000 0 14749588.435 7550045.133 -19334547.674 10 0 59234 50400.00000 0 12275360.552 7852065.108 -20882996.727 10 0 59234 51300.00000 0 9667792.246 8368383.860 -22023796.712 10 0 59234 52200.00000 0 6995196.124 9104214.156 -22734798.537 10 0 59234 53100.00000 0 4326731.272 10052410.387 -23002287.648 10 0 59234 54000.00000 0 1729722.714 11193648.863 -22821242.027 10 0 59234 54900.00000 0 -732928.627 12497140.696 -22195415.803 10 0 59234 55800.00000 0 -3005137.128 13921846.253 -21137248.029 10 0 59234 56700.00000 0 -5039725.555 15418138.829 -19667599.801 10 0 59234 57600.00000 0 -6800134.030 16929846.212 -17815326.318 10 0 59234 58500.00000 0 -8261675.469 18396583.009 -15616693.790 10 0 59234 59400.00000 0 -9412287.739 19756274.698 -13114654.006 10 0 59234 60300.00000 0 -10252754.211 20947766.702 -10357991.988 10 0 59234 61200.00000 0 -10796386.783 21913408.634 -7400364.528 10 0 59234 62100.00000 0 -11068188.063 22601505.484 -4299249.221 10 0 59234 63000.00000 0 -11103530.999 22968533.560 -1114824.999 10 0 59234 63900.00000 0 -10946414.041 22981029.268 2091193.693 10 0 59234 64800.00000 0 -10647367.280 22617072.918 5256746.546 10 0 59234 65700.00000 0 -10261098.886 21867306.804 8320618.251 10 0 59234 66600.00000 0 -9843981.429 20735446.329 11223608.256 10 0 59234 67500.00000 0 -9451483.647 19238263.916 13909657.981 10 0 59234 68400.00000 0 -9135654.886 17405047.019 16326915.204 10 0 59234 69300.00000 0 -8942766.811 15276552.990 18428716.690 10 0 59234 70200.00000 0 -8911210.069 12903503.751 20174471.881 10 0 59234 71100.00000 0 -9069732.978 10344681.669 21530432.419 10 0 59234 72000.00000 0 -9436095.161 7664703.981 22470334.070 10 0 59234 72900.00000 0 -10016192.183 4931565.828 22975899.944 10 0 59234 73800.00000 0 -10803688.181 2214051.220 23037195.989 10 0 59234 74700.00000 0 -11780172.876 -420883.285 22652831.989 10 0 59234 75600.00000 0 -12915838.176 -2910646.194 21830003.710 10 0 59234 76500.00000 0 -14170648.381 -5199366.805 20584374.259 10 0 59234 77400.00000 0 -15495957.618 -7239972.662 18939795.256 10 0 59234 78300.00000 0 -16836509.544 -8995903.263 16927871.183 10 0 59234 79200.00000 0 -18132738.002 -10442388.808 14587372.972 10 0 59234 80100.00000 0 -19323274.081 -11567240.116 11963509.899 10 0 59234 81000.00000 0 -20347555.565 -12371115.770 9107071.780 10 0 59234 81900.00000 0 -21148429.419 -12867254.110 6073456.268 10 0 59234 82800.00000 0 -21674637.140 -13080680.028 2921599.104 10 0 59234 83700.00000 0 -21883076.829 -13046919.003 -287172.462 10 0 59234 84600.00000 0 -21740744.353 -12810272.018 -3490340.611 10 0 59234 85500.00000 0 -21226269.052 -12421724.234 -6625427.856 10 0 59235 0.00000 0 -20330976.359 -11936576.552 -9631232.495 10 0 59235 900.00000 0 -19059429.273 -11411901.859 -12449042.994 10 0 59235 1800.00000 0 -17429424.738 -10903934.885 -15023804.608 10 0 59235 2700.00000 0 -15471441.248 -10465509.717 -17305214.470 10 0 59235 3600.00000 0 -13227561.805 -10143654.435 -19248721.151 10 0 59235 4500.00000 0 -10749915.923 -9977447.963 -20816407.720 10 0 59235 5400.00000 0 -8098706.871 -9996231.220 -21977740.018 10 0 59235 6300.00000 0 -5339907.460 -10218249.735 -22710164.911 10 0 59235 7200.00000 0 -2542721.996 -10649785.760 -22999546.727 10 0 59235 8100.00000 0 223078.403 -11284816.609 -22840433.817 10 0 59235 9000.00000 0 2889835.000 -12105213.084 -22236150.839 10 0 59235 9900.00000 0 5394582.738 -13081468.551 -21198716.139 10 0 59235 10800.00000 0 7681426.167 -14173926.507 -19748587.196 10 0 59235 11700.00000 0 9703611.710 -15334453.341 -17914240.576 10 0 59235 12600.00000 0 11425211.291 -16508484.194 -15731596.145 10 0 59235 13500.00000 0 12822349.293 -17637354.411 -13243298.197 10 0 59235 14400.00000 0 13883924.388 -18660817.302 -10497868.849 10 0 59235 15300.00000 0 14611799.142 -19519641.607 -7548751.376 10 0 59235 16200.00000 0 15020452.812 -20158179.189 -4453263.055 10 0 59235 17100.00000 0 15136115.121 -20526795.266 -1271478.440 10 0 59235 18000.00000 0 14995420.229 -20584059.767 1934934.784 10 0 59235 18900.00000 0 14643639.844 -20298608.819 5103904.864 10 0 59235 19800.00000 0 14132571.418 -19650599.478 8174147.355 10 0 59235 20700.00000 0 13518171.107 -18632697.995 11086336.417 10 0 59235 21600.00000 0 12858031.206 -17250561.293 13784234.600 10 0 59235 22500.00000 0 12208807.520 -15522792.212 16215760.742 10 0 59235 23400.00000 0 11623703.676 -13480370.647 18333976.958 10 0 59235 24300.00000 0 11150116.587 -11165583.804 20097977.520 10 0 59235 25200.00000 0 10827540.319 -8630499.022 21473664.216 10 0 59235 26100.00000 0 10685814.904 -5935040.930 22434394.740 10 0 59235 27000.00000 0 10743792.495 -3144750.502 22961492.861 10 0 59235 27900.00000 0 11008476.349 -328316.271 23044611.259 10 0 59235 28800.00000 0 11474669.003 2445022.646 22681940.159 10 0 59235 29700.00000 0 12125145.406 5108096.803 21880257.266 10 0 59235 30600.00000 0 12931345.463 7598343.756 20654816.974 10 0 59235 31500.00000 0 13854559.186 9860158.932 19029079.311 10 0 59235 32400.00000 0 14847557.199 11846963.655 17034281.830 10 0 59235 33300.00000 0 15856600.656 13522904.774 14708860.396 10 0 59235 34200.00000 0 16823748.250 14864114.765 12097727.789 10 0 59235 35100.00000 0 17689364.851 15859478.905 9251421.934 10 0 59235 36000.00000 0 18394726.920 16510876.212 6225138.491 10 0 59235 36900.00000 0 18884614.719 16832882.632 3077665.452 10 0 59235 37800.00000 0 19109780.919 16851947.699 -129760.123 10 0 59235 38700.00000 0 19029189.473 16605078.417 -3334650.847 10 0 59235 39600.00000 0 18611927.697 16138085.426 -6474498.970 10 0 59235 40500.00000 0 17838707.869 15503465.810 -9488012.183 10 0 59235 41400.00000 0 16702891.970 14758012.931 -12316329.397 10 0 59235 42300.00000 0 15210993.541 13960255.910 -14904190.562 10 0 59235 43200.00000 0 13382633.184 13167839.065 -17201035.678 10 0 59235 44100.00000 0 11249947.880 12434954.346 -19162009.605 10 0 59235 45000.00000 0 8856478.037 11809937.571 -20748851.374 10 0 59235 45900.00000 0 6255578.744 11333131.993 -21930649.532 10 0 59235 46800.00000 0 3508422.196 11035110.925 -22684448.135 10 0 59235 47700.00000 0 681675.745 10935335.320 -22995691.412 10 0 59235 48600.00000 0 -2155046.307 11041303.102 -22858498.831 10 0 59235 49500.00000 0 -4931849.853 11348225.581 -22275766.011 10 0 59235 50400.00000 0 -7581234.938 11839243.477 -21259090.637 10 0 59235 51300.00000 0 -10040664.786 12486171.817 -19828526.197 10 0 59235 52200.00000 0 -12254923.189 13250740.438 -18012169.835 10 0 59235 53100.00000 0 -14178162.830 14086275.837 -15845593.879 10 0 59235 54000.00000 0 -15775560.888 14939751.641 -13371133.606 10 0 59235 54900.00000 0 -17024515.110 15754119.686 -10637046.428 10 0 59235 55800.00000 0 -17915333.117 16470822.327 -7696560.119 10 0 59235 56700.00000 0 -18451389.225 17032379.422 -4606829.495 10 0 59235 57600.00000 0 -18648745.392 17384940.890 -1427822.510 10 0 59235 58500.00000 0 -18535255.135 17480697.705 1778842.206 10 0 59235 59400.00000 0 -18149190.611 17280050.612 4951083.819 10 0 59235 60300.00000 0 -17537452.549 16753446.454 8027551.155 10 0 59235 61200.00000 0 -16753439.452 15882806.115 10948795.554 10 0 59235 62100.00000 0 -15854666.119 14662485.249 13658403.189 10 0 59235 63000.00000 0 -14900231.239 13099728.340 16104066.446 10 0 59235 63900.00000 0 -13948239.442 11214597.440 18238575.252 10 0 59235 64800.00000 0 -13053284.592 9039378.313 20020711.058 10 0 59235 65700.00000 0 -12264098.106 6617487.731 21416028.000 10 0 59235 66600.00000 0 -11621459.211 4001925.886 22397507.692 10 0 59235 67500.00000 0 -11156453.107 1253335.976 22946076.293 10 0 59235 68400.00000 0 -10889148.969 -1562251.178 23050974.632 10 0 59235 69300.00000 0 -10827752.700 -4375896.758 22709974.421 10 0 59235 70200.00000 0 -10968270.187 -7118357.956 21929435.958 10 0 59235 71100.00000 0 -11294696.169 -9722711.090 20724205.140 10 0 59235 72000.00000 0 -11779722.406 -12126887.131 19117350.155 10 0 59235 72900.00000 0 -12385937.480 -14276015.930 17139740.921 10 0 59235 73800.00000 0 -13067470.064 -16124482.532 14829477.068 10 0 59235 74700.00000 0 -13772008.692 -17637609.859 12231173.278 10 0 59235 75600.00000 0 -14443114.717 -18792896.973 9395113.604 10 0 59235 76500.00000 0 -15022732.078 -19580759.947 6376289.383 10 0 59235 77400.00000 0 -15453788.228 -20004742.765 3233338.243 10 0 59235 78300.00000 0 -15682775.750 -20081187.901 27404.195 10 0 59235 79200.00000 0 -15662204.056 -19838379.098 -3179058.877 10 0 59235 80100.00000 0 -15352815.246 -19315191.582 -6323516.189 10 0 59235 81000.00000 0 -14725467.681 -18559306.373 -9344588.135 10 0 59235 81900.00000 0 -13762604.569 -17625064.526 -12183267.609 10 0 59235 82800.00000 0 -12459242.586 -16571052.997 -14784092.638 10 0 59235 83700.00000 0 -10823436.085 -15457525.805 -17096249.395 10 0 59235 84600.00000 0 -8876195.134 -14343771.384 -19074582.115 10 0 59235 85500.00000 0 -6650859.410 -13285539.466 -20680488.518 10 0 59236 0.00000 0 -4191953.489 -12332638.026 -21882682.094 10 0 59236 900.00000 0 -1553571.109 -11526803.504 -22657805.817 10 0 59236 1800.00000 0 1202642.586 -10899934.237 -22990884.890 10 0 59236 2700.00000 0 4009826.678 -10472763.541 -22875610.362 10 0 59236 3600.00000 0 6798458.736 -10254025.941 -22314448.696 10 0 59236 4500.00000 0 9499020.396 -10240151.987 -21318576.255 10 0 59236 5400.00000 0 12044662.516 -10415502.126 -19907641.408 10 0 59236 6300.00000 0 14373758.693 -10753127.858 -18109360.295 10 0 59236 7200.00000 0 16432241.067 -11216025.750 -15958955.731 10 0 59236 8100.00000 0 18175622.171 -11758829.165 -13498451.604 10 0 59236 9000.00000 0 19570620.242 -12329864.277 -10775837.904 10 0 59236 9900.00000 0 20596322.362 -12873481.990 -7844123.847 10 0 59236 10800.00000 0 21244839.606 -13332566.176 -4760298.496 10 0 59236 11700.00000 0 21521429.684 -13651111.841 -1584219.720 10 0 59236 12600.00000 0 21444084.879 -13776764.395 1622546.446 10 0 59236 13500.00000 0 21042605.220 -13663213.494 4797913.571 10 0 59236 14400.00000 0 20357197.996 -13272341.396 7880467.064 10 0 59236 15300.00000 0 19436663.921 -12576036.529 10810638.469 10 0 59236 16200.00000 0 18336246.913 -11557597.114 13531840.248 10 0 59236 17100.00000 0 17115237.732 -10212666.807 15991540.589 10 0 59236 18000.00000 0 15834431.288 -8549663.705 18142259.047 10 0 59236 18900.00000 0 14553542.904 -6589684.722 19942465.639 10 0 59236 19800.00000 0 13328690.013 -4365888.586 21357367.819 10 0 59236 20700.00000 0 12210042.813 -1922381.869 22359571.691 10 0 59236 21600.00000 0 11239740.310 687347.714 22929605.986 10 0 59236 22500.00000 0 10450157.312 3402388.199 23056299.508 10 0 59236 23400.00000 0 9862593.834 6156672.101 22737004.944 10 0 59236 24300.00000 0 9486441.277 8881465.919 21977664.351 10 0 59236 25200.00000 0 9318860.555 11507980.060 20792714.007 10 0 59236 26100.00000 0 9344986.613 13969993.312 19204828.875 10 0 59236 27000.00000 0 9538652.253 16206384.811 17244509.611 10 0 59236 27900.00000 0 9863602.694 18163469.410 14949517.790 10 0 59236 28800.00000 0 10275151.766 19797039.457 12364167.970 10 0 59236 29700.00000 0 10722211.725 21074027.410 9538488.134 10 0 59236 30600.00000 0 11149612.378 21973718.718 6527262.937 10 0 59236 31500.00000 0 11500612.227 22488462.550 3388977.141 10 0 59236 32400.00000 0 11719495.261 22623848.853 184679.125 10 0 59236 33300.00000 0 11754142.484 22398342.608 -3023213.371 10 0 59236 34200.00000 0 11558467.463 21842389.279 -6172141.124 10 0 59236 35100.00000 0 11094610.298 20997028.426 -9200639.736 10 0 59236 36000.00000 0 10334794.232 19912073.730 -12049558.422 10 0 59236 36900.00000 0 9262763.335 18643936.827 -14663235.415 10 0 59236 37800.00000 0 7874737.588 17253187.997 -16990604.945 10 0 59236 38700.00000 0 6179842.515 15801958.243 -18986212.278 10 0 59236 39600.00000 0 4199993.358 14351294.338 -20611115.240 10 0 59236 40500.00000 0 1969237.383 12958580.241 -21833653.490 10 0 59236 41400.00000 0 -467418.659 11675135.156 -22630069.813 10 0 59236 42300.00000 0 -3055646.586 10544090.581 -22984971.103 10 0 59236 43200.00000 0 -5733831.254 9598636.179 -22891620.400 10 0 59236 44100.00000 0 -8435415.531 8860707.985 -22352055.037 10 0 59236 45000.00000 0 -11091456.793 8340173.155 -21377029.693 10 0 59236 45900.00000 0 -13633287.489 8034543.826 -19985786.801 10 0 59236 46800.00000 0 -15995168.314 7929229.892 -18205660.277 10 0 59236 47700.00000 0 -18116823.251 7998317.496 -16071521.812 10 0 59236 48600.00000 0 -19945751.374 8205837.769 -13625082.016 10 0 59236 49500.00000 0 -21439220.129 8507469.757 -10914061.348 10 0 59236 50400.00000 0 -22565858.577 8852603.516 -7991248.249 10 0 59236 51300.00000 0 -23306786.323 9186674.548 -4913463.748 10 0 59236 52200.00000 0 -23656233.500 9453669.881 -1740453.352 10 0 59236 53100.00000 0 -23621628.513 9598699.488 1466271.775 10 0 59236 54000.00000 0 -23223152.540 9570524.573 4644621.866 10 0 59236 54900.00000 0 -22492781.711 9323936.638 7733121.171 10 0 59236 55800.00000 0 -21472858.887 8821887.997 10672083.695 10 0 59236 56700.00000 0 -20214256.023 8037285.099 13404750.436 10 0 59236 57600.00000 0 -18774204.443 6954370.269 15878367.585 10 0 59236 58500.00000 0 -17213883.502 5569634.635 18045186.438 10 0 59236 59400.00000 0 -15595867.478 3892224.221 19863367.542 10 0 59236 60300.00000 0 -13981535.798 1943821.826 21297773.435 10 0 59236 61200.00000 0 -12428552.910 -241991.380 22320636.216 10 0 59236 62100.00000 0 -10988520.950 -2620869.760 22912088.412 10 0 59236 63000.00000 0 -9704901.272 -5139287.832 23060547.712 10 0 59236 63900.00000 0 -8611290.063 -7736512.509 22762948.358 10 0 59236 64800.00000 0 -7730119.008 -10346884.175 22024814.415 10 0 59236 65700.00000 0 -7071834.898 -12902314.931 20860172.453 10 0 59236 66600.00000 0 -6634592.825 -15334902.980 19291303.783 10 0 59236 67500.00000 0 -6404476.698 -17579556.757 17348339.039 10 0 59236 68400.00000 0 -6356239.221 -19576521.189 15068700.641 10 0 59236 69300.00000 0 -6454531.888 -21273701.474 12496401.620 10 0 59236 70200.00000 0 -6655574.869 -22628687.294 9681212.196 10 0 59236 71100.00000 0 -6909197.723 -23610391.929 6677708.398 10 0 59236 72000.00000 0 -7161165.669 -24200236.051 3544219.960 10 0 59236 72900.00000 0 -7355693.175 -24392824.665 341697.253 10 0 59236 73800.00000 0 -7438037.825 -24196086.754 -2867480.664 10 0 59236 74700.00000 0 -7357063.171 -23630869.942 -6020732.871 10 0 59236 75600.00000 0 -7067659.805 -22730005.886 -9056513.052 10 0 59236 76500.00000 0 -6532919.398 -21536885.052 -11915529.757 10 0 59236 77400.00000 0 -5725966.701 -20103600.918 -14541924.499 10 0 59236 78300.00000 0 -4631369.017 -18488742.545 -16884382.638 10 0 59236 79200.00000 0 -3246060.834 -16754929.775 -18897153.401 10 0 59236 80100.00000 0 -1579742.372 -14966196.598 -20540957.415 10 0 59236 81000.00000 0 345266.404 -13185334.634 -21783762.823 10 0 59236 81900.00000 0 2494711.167 -11471310.164 -22601414.139 10 0 59236 82800.00000 0 4823599.446 -9876864.660 -22978101.320 10 0 59236 83700.00000 0 7277857.284 -8446400.337 -22906660.240 10 0 59236 84600.00000 0 9796376.290 -7214239.504 -22388699.433 10 0 59236 85500.00000 0 12313364.458 -6203330.089 -21434551.716 99